Weather History for Gallup, NM

Change the Weather History Date:

Thursday, August 22, 2013

  Actual Average Record
Temperature  
Mean Temperature 68 °F -  
Max Temperature 84 °F 82 °F 91 °F (1991)
Min Temperature 53 °F 50 °F 40 °F (1979)
Cooling Degree Days 2    
Growing Degree Days 18 (Base 50)    
Moisture  
Dew Point 51 °F    
Average Humidity 59    
Maximum Humidity 96    
Minimum Humidity 23    
Precipitation  
Precipitation 0.01 in - - ()
Sea Level Pressure  
Sea Level Pressure 29.86 in    
Wind  
Wind Speed 4 mph (SE)    
Max Wind Speed 26 mph    
Max Gust Speed 37 mph    
Visibility 10 miles    
Events Rain , Thunderstorm    
Averages and records for this station are not official NWS values.
T = Trace of Precipitation, MM = Missing Value Source: NWS Daily Summary

Daily Weather History Graph

Daily Weather History Graph

Search for Another Location

Airport:

Trip Planner

Search our weather history database for the weather conditions in past years. The results will help you decide how hot, cold, wet, or windy it might be!

Date:

Astronomy

Aug. 22, 2013 Rise Set
Actual Time 6:40 AM MDT 7:55 PM MDT
Civil Twilight 6:13 AM MDT 8:21 PM MDT
Nautical Twilight 5:41 AM MDT 8:53 PM MDT
Astronomical Twilight 5:08 AM MDT 9:26 PM MDT
Moon 8:48 PM MDT (8/22) 8:26 AM MDT (8/22)
Length of Visible Light 14h 08m
Length of Day
13h 15m
Waning Gibbous, 96% of the Moon is Illuminated
Aug 22
Waning Gibbous
Aug 28
Last Quarter
Sep 5
New
Sep 12
First Quarter
Sep 19
Full

Hourly Weather History & Observations

Time (MDT) Temp. Dew Point Humidity Pressure Visibility Wind Dir Wind Speed Gust Speed Precip Events Conditions
12:53 AM 62.1 °F 54.0 °F 75% 29.79 in 10.0 mi ENE 8.1 mph - N/A   Clear
1:53 AM 62.1 °F 53.1 °F 72% 29.84 in 10.0 mi Calm Calm - N/A   Clear
2:53 AM 59.0 °F 53.1 °F 81% 29.86 in 10.0 mi ESE 4.6 mph - N/A   Clear
3:53 AM 55.9 °F 53.1 °F 90% 29.84 in 10.0 mi Calm Calm - N/A   Clear
4:53 AM 55.0 °F 53.1 °F 93% 29.83 in 10.0 mi Calm Calm - N/A   Clear
5:53 AM 53.1 °F 52.0 °F 96% 29.87 in 10.0 mi Calm Calm - N/A   Clear
6:53 AM 54.0 °F 52.0 °F 93% 29.97 in 10.0 mi Calm Calm - N/A   Clear
7:53 AM 57.0 °F 53.1 °F 87% 29.96 in 10.0 mi Calm Calm - N/A   Clear
8:53 AM 61.0 °F 54.0 °F 78% 29.95 in 10.0 mi Calm Calm - N/A   Clear
9:53 AM 66.0 °F 55.0 °F 68% 29.89 in 10.0 mi Calm Calm - N/A   Clear
10:53 AM 72.0 °F 55.0 °F 55% 29.86 in 10.0 mi Calm Calm - N/A   Clear
11:53 AM 75.9 °F 55.0 °F 48% 29.84 in 10.0 mi Variable 3.5 mph - N/A   Clear
12:53 PM 80.1 °F 52.0 °F 38% 29.79 in 10.0 mi Variable 4.6 mph - N/A   Clear
1:53 PM 80.1 °F 51.1 °F 36% 29.77 in 10.0 mi SW 12.7 mph 16.1 mph N/A Thunderstorm Partly Cloudy
2:32 PM 78.8 °F 51.8 °F 39% 30.28 in 10.0 mi East 26.5 mph 36.8 mph N/A Thunderstorm Thunderstorm
2:53 PM 81.0 °F 48.0 °F 31% 29.78 in 10.0 mi ENE 12.7 mph 25.3 mph N/A   Clear
3:53 PM 82.0 °F 46.0 °F 28% 29.75 in 10.0 mi Calm Calm - N/A   Clear
4:53 PM 81.0 °F 39.9 °F 23% 29.74 in 10.0 mi SE 4.6 mph - N/A   Clear
5:53 PM 81.0 °F 42.1 °F 25% 29.73 in 10.0 mi Calm Calm - N/A   Clear
6:34 PM 82.4 °F 42.8 °F 25% 30.17 in 10.0 mi Calm Calm - N/A Thunderstorm Clear
6:53 PM 81.0 °F 44.1 °F 27% 29.73 in 10.0 mi Variable 4.6 mph - N/A Thunderstorm Mostly Cloudy
7:53 PM 71.1 °F 51.1 °F 49% 29.80 in 10.0 mi Calm Calm - 0.01 in Rain Light Rain
8:53 PM 66.0 °F 55.0 °F 68% 29.82 in 10.0 mi South 6.9 mph - 0.00 in   Partly Cloudy
9:53 PM 64.0 °F 55.0 °F 73% 29.83 in 10.0 mi Calm Calm - N/A   Clear
10:53 PM 64.0 °F 54.0 °F 70% 29.81 in 10.0 mi South 9.2 mph - N/A   Clear
11:53 PM 63.0 °F 52.0 °F 67% 29.78 in 10.0 mi SW 3.5 mph - N/A   Clear